User: anonymous   Login
Location: Theydon Bois
(51.6750°N, 0.1050°E)
Time: 21:50:20
(UTC+00:00)
Language:

Cosmos 2333 Rocket - Orbit

View from above orbital plane
View from above orbital plane
View from above satellite
View from above satellite

Ground track
Ground track

The orbit data is extracted from the following two-line orbital elements,

1 24298U 96051B   17349.51582335 -.00000134  00000-0 -46291-4 0  9998
2 24298  70.8463  39.9648 0018638 269.7740  90.1244 14.12478060 97420
Epoch (UTC): 15 December 2017 12:22:47
Eccentricity: 0.0018638
inclination: 70.8463°
perigee height: 837 km
apogee height: 864 km
right ascension of ascending node: 39.9648°
argument of perigee: 269.7740°
revolutions per day: 14.12478060
mean anomaly at epoch: 90.1244°
orbit number at epoch: 9742

The dashed part of the orbit path shows where the satellite is in the earth's shadow,  

DLR